LFPVLFOA

Guest
Details From LFPV - Velizy
To LFOA - AVORD
Flight Number -
Tags generated
Created
Modified
Stats Distance 105 nm / 194 km
Max Altitude 13,900 ft / 4,237 m
Waypoints 3
Social Downloads 0
Likes 0
Share VATSIM

Download

Looking for another format? Having issues loading an existing format? Contact us
Advertisement - Login to hide

Notes

Basic altitude profile: - Ascent Rate: 2500ft/min - Ascent Speed: 250kts - Cruise Altitude: 35000ft - Cruise Speed: 420kts - Descent Rate: 1500ft/min - Descent Speed: 250kts Options: - Use NATs: yes - Use PACOTS: yes - Use low airways: yes - Use high airways: yes

Route

LFPV KETEX LFOA

ID Type Via Altitude Latitude Longitude Leg Dist Tot Dist Heading (true) Name
O LFPV APT - 0 ft / 0 m 48.77437˚ 2.20161˚ - 0 nm - Velizy
KETEX FIX - 13,900 ft / 4,237 m 48.13333˚ 2.35972˚ 39 nm 39 nm 171° / 171° -
O LFOA APT - 0 ft / 0 m 47.05574˚ 2.63181˚ 65 nm 104 nm 170° / 170° AVORD

Altitude Profile

Advertisement - Login to hide

LFPV

Details ICAO LFPV
Name Velizy
Region France
Timezone Europe/Paris (UTC+2.0)
Stats Elevation 584 ft / 178 m (AMSL)
Location 48.774366° 2.201605°
Runways 1
Magnetic Variation 0.606° E

METAR

LFPV 251130Z AUTO 08004KT 360V130 9999 FEW048 24/14 Q1017 TEMPO BKN040TCU

Decode

TAF

TAF LFPV 250800Z 2509/2609 02005KT CAVOK TEMPO 2509/2524 BKN040TCU PROB40 TEMPO 2515/2523 3000 SHRA BKN030CB PROB30 TEMPO 2516/2522 VRB15G25KT 1500 TSRAGR BKN012 BKN030CB

Decode

Departure Runways

ID Width Length Bearing (true) Bearing (mag) Surface Threshold Offset Overrun Length
09 148 ft / 45 m 5,932 ft / 1,808 m 88.30° 87.69° Asphalt 0 ft / 0 m 436 ft / 133 m
27 148 ft / 45 m 5,932 ft / 1,808 m 268.31° 267.70° Asphalt 0 ft / 0 m 0 ft / 0 m

LFOA

Details ICAO LFOA
Name AVORD
Region France
Timezone Europe/Paris (UTC+2.0)
Stats Elevation 580 ft / 177 m (AMSL)
Location 47.055737° 2.631807°
Runways 1
Magnetic Variation 0.831° E

METAR

LFOA 251130Z AUTO 14004KT 060V180 9999 // FEW044/// 26/13 Q1015

Decode

TAF

TAF LFOA 250800Z 2509/2609 09006KT CAVOK PROB40 TEMPO 2512/2523 4000 SHRA SCT040TCU PROB40 TEMPO 2518/2522 VRB20G40KT 2500 TSRAGS SCT010 BKN050CB TEMPO 2523/2602 04010G20KT TEMPO 2604/2607 4000 SHRA BKN040CB BECMG 2607/2609 12010G20KT

Decode

Destination Runways

ID Width Length Bearing (true) Bearing (mag) Surface Threshold Offset Overrun Length
06 148 ft / 45 m 11,471 ft / 3,496 m 60.27° 59.44° Asphalt 0 ft / 0 m 1,312 ft / 400 m
24 148 ft / 45 m 11,471 ft / 3,496 m 240.30° 239.47° Asphalt 0 ft / 0 m 1,319 ft / 402 m

Approach Navaids

Runway Type Ident Frequency Range Bearing (true) Bearing (mag) Slope Elevation
06 Localiser AV 110.70 MHz 18 nm / 33 km 60.32° 59.49° - 577 ft / 176 m (AMSL)
06 Glidescope AV 110.70 MHz 10 nm / 19 km 60.29° 59.46° 3.00° 577 ft / 176 m (AMSL)
24 Localiser AV 110.70 MHz 18 nm / 33 km 240.26° 239.43° - 562 ft / 171 m (AMSL)
24 Glidescope AV 110.70 MHz 10 nm / 19 km 240.29° 239.46° 3.00° 633 ft / 193 m (AMSL)